Welcome to the New NWS' Forecast!
Most changes are behind the scenes, but click here for differences you might notice.

Regional Weather Roundup (RWR)

Issued by Gray - Portland, ME (GYX)

                            
502 
ASUS41 KGYX 180510
RWRGYX
WEATHER ROUNDUP FOR MAINE AND NEW HAMPSHIRE
NATIONAL WEATHER SERVICE GRAY ME
100 AM EDT WED JUL 18 2018

MEZ002-005-006-010-012-015-018-020-021-024-026-027-029-180600-
MAINE
  
CITY           SKY/WX    TMP DP  RH WIND       PRES   REMARKS
PORTLAND       MOCLDY    66  65  96 W5        29.76S                  
SANFORD        MOCLDY    66  65  96 CALM      29.78S FOG              
BAR HARBOR     CLOUDY    66  66 100 SW6       29.74S                  
WISCASSET      LGT RAIN  67  67 100 VRB3      29.76R FOG              
ROCKLAND       LGT RAIN  66  65  96 CALM      29.74R                  
FRYEBURG       CLOUDY    67  67 100 CALM      29.78R                  
LEWISTONAUBURN CLOUDY    66  65  96 SW5       29.77R                  
AUGUSTA        CLOUDY    66  65  96 W5        29.75S                  
WATERVILLE     LGT RAIN  67  66  97 CALM      29.72S                  
BANGOR         LGT RAIN  68  68 100 S5        29.72S FOG              
GREENVILLE       N/A     65  63  93 NW8       29.73S                  
MILLINOCKET    LGT RAIN  67  65  93 CALM      29.71S                  
HOULTON        LGT RAIN  67  67 100 S5        29.67F FOG              
PRESQUE ISLE   CLOUDY    68  66  94 S3        29.68S FOG              
FRENCHVILLE    CLOUDY    67  62  84 NW9       29.69R                  
CARIBOU        CLOUDY    69  67  93 W3        29.66F                  
$$

NHZ002-005-008-009-011-012-014-180600-
NEW HAMPSHIRE
  
CITY           SKY/WX    TMP DP  RH WIND       PRES   REMARKS
PORTSMOUTH     MOCLDY    69  69  98 NW5       29.75S                  
ROCHESTER      FAIR      69  69 100 CALM      29.77S                  
NASHUA         FAIR      69  69 100 NW5       29.77F                  
MANCHESTER     MOCLDY    71  70  96 CALM      29.76F                  
CONCORD        MOCLDY    69  68  96 NW3       29.78F                  
LACONIA        CLOUDY    69  68  96 SW5       29.80S                  
PLYMOUTH         N/A     67  65  94 W6        29.79F                  
BERLIN         FAIR      61  61 100 CALM      29.82R FOG              
WHITEFIELD     FOG       63  62  97 NW3       29.83R VSB 1/2          
JAFFREY        FAIR      70  69  97 CALM      29.81F                  
KEENE          CLOUDY    68  68 100 CALM      29.80S                  
LEBANON        CLOUDY    69  65  86 CALM      29.82R                  
MT WASHINGTON  FOG       48  48 100 NW41G52     N/A  VSB 0            
$$

VTZ005-007-008-180600-
VERMONT
  
CITY           SKY/WX    TMP DP  RH WIND       PRES   REMARKS
ST JOHNSBURY     N/A     65  65 100 MISG      29.81R                  
MONTPELIER     CLOUDY    65  60  84 NW5       29.88R                  
BURLINGTON     MOCLDY    71  55  56 NW12      29.84R                  
$$

MAZ007-012-024-CTZ003-RIZ002-NYZ038-NYZ072-180600-
SOUTHERN NEW ENGLAND AND NY
  
CITY           SKY/WX    TMP DP  RH WIND       PRES   REMARKS
BOSTON         LGT RAIN  72  69  90 SW5       29.78R                  
NANTUCKET      FAIR      70  68  93 W8        29.80F                  
PROVIDENCE     CLOUDY    73  70  90 S6        29.78F                  
HARTFORD       LGT RAIN  71  69  93 S5        29.79F                  
ALBANY         MOCLDY    70  57  63 NW6       29.82F                  
NEW YORK CITY  CLOUDY    74  67  78 NE6       29.80F                  
$$

ANZ081-ANZ082-ANZ150-NHZ014-MEZ023>029-180600-
COASTAL MARINE OBSERVATIONS
  
STATION/POSITION TIME  TEMP    WIND        PRES    WAVE
                       AIR SEA DIR/SP/G            HT/PER
                 (UTC) (F)     (DEG/KT/KT) (MB)    (FT/S)
MOUNT DESERT ROC 0500   62     180/ 15/ 16 1007.6F
MATINICUS ROCK   0400   64     200/ 13/ 13 1007.2R
ISLE OF SHOALS   0400   70     270/ 15/ 16 1007.0F
JEFFREYS LEDGE   0436      68                N/A     3/ 5
$$

.............KEY..............
   WCI - WIND CHILL
   TC  - TEMPERATURE IN CELSIUS
   VSB - VISIBILITY IN MILES
   HX  - HEAT INDEX
   FAIR- INDICATES FEW OR NO CLOUDS BELOW 12,000 FT, WITH NO 
         SIGNIFICANT WEATHER AND/OR OBSTRUCTIONS TO VISIBILITY.